Home   Weather   Glendale   Past weeks
Flag for USA

Past Weather in Glendale, California, USA — Yesterday and Last 2 Weeks

Now
50 °F

Clear.


Feels Like: 49 °F
Forecast: 71 / 47 °F
Wind: 3 mph from Northwest

Location: Bob Hope Airport

Current Time: Mar 30, 2020 at 3:32:27 am

Latest Report: Mar 30, 2020 at 2:53 am


Visibility: 10 mi

Pressure: 30.11 "Hg

Humidity: 74%

Dew Point: 42 °F

Location of GlendaleLocation

Past Weather in Glendale — Graph

°F

Glendale Temperature Yesterday

Maximum temperature yesterday: 63 °F (at 1:53 pm)
Minimum temperature yesterday: 47 °F (at 5:53 am)
Average temperature yesterday: 56 °F

High & Low Weather Summary for the Past Weeks

 TemperatureHumidityPressure
High67 °F (Mar 22, 1:53 pm)93% (Mar 16, 7:34 pm)30.21 "Hg (Mar 16, 7:34 pm)
Low39 °F (Mar 17, 6:53 am)20% (Mar 27, 1:53 pm)29.71 "Hg (Mar 18, 5:53 pm)
Average54 °F65%30.03 "Hg
* Reported Mar 15 1:53 am — Mar 30 1:53 am, Glendale. Weather by CustomWeather, © 2020

Note: Actual official high and low records may vary slightly from our data, if they occured in-between our weather recording intervals... More about our weather records

Glendale Weather History for the Previous 24 Hours

Scroll right to see more
 ConditionsComfort  
Time TempWeatherWind HumidityBarometerVisibility
1:53 am
Mon, Mar 30
51 °FClear.3 mph77%30.11 "Hg10 mi
12:53 am53 °FClear.3 mph74%30.12 "Hg10 mi
11:53 pm
Sun, Mar 29
54 °FClear.3 mph72%30.09 "Hg10 mi
10:53 pm55 °FClear.3 mph72%30.08 "Hg10 mi
9:53 pm56 °FClear.No wind67%30.07 "Hg10 mi
9:29 pm56 °FClear.5 mph67%30.10 "Hg10 mi
8:53 pm58 °FClear.9 mph65%30.07 "Hg10 mi
7:53 pm59 °FPassing clouds.5 mph60%30.06 "Hg10 mi
6:53 pm61 °FSunny.15 mph52%30.03 "Hg10 mi
5:53 pm63 °FScattered clouds.14 mph48%30.02 "Hg10 mi
4:53 pm63 °FMostly cloudy.12 mph48%30.00 "Hg10 mi
3:53 pm63 °FOvercast.8 mph52%30.01 "Hg10 mi
2:53 pm63 °FPartly sunny.6 mph48%30.03 "Hg10 mi
1:53 pm63 °FPassing clouds.10 mph48%30.04 "Hg10 mi
12:53 pm61 °FBroken clouds.7 mph52%30.07 "Hg10 mi
11:53 am61 °FPassing clouds.5 mph50%30.08 "Hg10 mi
10:53 am58 °FSunny.No wind58%30.09 "Hg10 mi
9:53 am56 °FSunny.5 mph62%30.09 "Hg10 mi
8:53 am53 °FSunny.No wind69%30.08 "Hg10 mi
7:53 am49 °FSunny.3 mph77%30.06 "Hg10 mi
6:53 am48 °FSunny.No wind77%30.05 "Hg10 mi
5:53 am47 °FPassing clouds.No wind77%30.03 "Hg10 mi
4:53 am48 °FClear.No wind74%30.02 "Hg10 mi
3:53 am48 °FClear.No wind71%30.03 "Hg10 mi
Weather by CustomWeather, © 2020

See weather overview

Advertising